Date String (YYYY-MM-DD hh:mm:ss) UTC,Instrument flags,absolute air pressure of the measurement (hPa),sample flow rate (lpm),inlet stack bypass flow (lpm),air temperature of the measurement (°C),ambient temperature measured by the external sensor (°C),aerosol sample conditioner tube jacket temperature (°C),OPC LED temperature (°C),internal box temperature (°C),relative humidity of the measurement (%),span deviation,mass concentration of particles derived from Lorenz-Mie calculation of OPC scattering (μg/m³),mass concentration of particles derived from Lorenz-Mie calculation of OPC scattering (μg/m³),mass concentration of particles derived from Lorenz-Mie calculation of OPC scattering (μg/m³)
DateTimeUTC,F1_M11,P_M11,Q1_M11,Q2_M11,T1_M11,T2_M11,T3_M11,T4_M11,T5_M11,U1_M11,ZSPAN_M11,X2_M11,X0_M11,X1_M11
2024-04-28 10:00:00,SystemResetWarning,0824.4,5.00,000.00,021.5,020.9,000.0,030.1,023.3,025.0,0000.0,0000.97,0001.04,0000.91
2024-04-28 10:01:00,SystemResetWarning,0824.4,5.00,000.00,021.5,020.9,000.0,030.1,023.3,025.0,0000.0,0001.02,0001.13,0000.95
2024-04-28 10:02:00,SystemResetWarning,0824.4,5.00,000.00,021.5,020.9,000.0,030.1,023.3,025.0,0000.0,0001.10,0001.28,0000.99
2024-04-28 10:03:00,SystemResetWarning,0824.5,5.01,000.00,021.5,020.9,000.0,030.1,023.3,024.9,0000.0,0001.22,0001.45,0001.08
2024-04-28 10:04:00,SystemResetWarning,0824.5,5.00,000.00,021.5,020.9,000.0,030.1,023.3,024.9,0000.0,0001.32,0001.61,0001.15
2024-04-28 10:05:00,SystemResetWarning,0824.5,5.01,000.00,021.5,020.9,000.0,030.1,023.3,025.0,0000.0,0001.41,0001.74,0001.22
2024-04-28 10:06:00,SystemResetWarning,0824.5,4.99,000.00,021.5,020.9,000.0,030.1,023.3,025.0,0000.0,0001.47,0001.81,0001.28
2024-04-28 10:07:00,SystemResetWarning,0824.5,5.00,000.00,021.5,020.9,000.0,030.1,023.4,024.9,0000.0,0001.54,0001.91,0001.33
2024-04-28 10:08:00,SystemResetWarning,0824.5,5.00,000.00,021.5,020.9,000.0,030.1,023.3,025.0,0000.0,0001.64,0002.02,0001.42
2024-04-28 10:09:00,SystemResetWarning,0824.5,5.00,000.00,021.5,020.9,000.0,030.1,023.3,025.0,0000.0,0001.73,0002.10,0001.51
2024-04-28 10:10:00,SystemResetWarning,0824.5,5.00,000.00,021.5,020.9,000.0,030.1,023.3,025.0,0000.0,0001.80,0002.18,0001.58
2024-04-28 10:11:00,SystemResetWarning,0824.5,5.00,000.00,021.5,020.9,000.0,030.1,023.3,025.0,0000.0,0001.86,0002.22,0001.65
2024-04-28 10:12:00,SystemResetWarning,0824.5,5.00,000.00,021.5,020.9,000.0,030.1,023.3,025.0,0000.0,0001.91,0002.31,0001.72
2024-04-28 10:13:00,SystemResetWarning,0824.5,5.00,000.00,021.5,020.9,000.0,030.1,023.3,025.1,0000.0,0001.94,0002.34,0001.77
2024-04-28 10:14:00,SystemResetWarning,0824.5,5.00,000.00,021.5,020.9,000.0,030.1,023.3,025.1,0000.0,0001.97,0002.37,0001.81
2024-04-28 10:15:00,SystemResetWarning,0824.5,5.00,000.00,021.5,020.9,000.0,030.1,023.3,025.1,0000.0,0002.01,0002.35,0001.86
2024-04-28 10:16:00,SystemResetWarning,0824.5,5.00,000.00,021.5,020.9,000.0,030.1,023.3,025.1,0000.0,0002.04,0002.39,0001.91
2024-04-28 10:17:00,SystemResetWarning,0824.5,5.00,000.00,021.5,020.9,000.0,030.1,023.3,025.1,0000.0,0002.09,0002.44,0001.96
2024-04-28 10:18:00,SystemResetWarning,0824.5,5.00,000.00,021.5,020.9,000.0,030.1,023.3,025.2,0000.0,0002.15,0002.48,0002.01
2024-04-28 10:19:00,SystemResetWarning,0824.5,4.98,000.00,021.5,020.9,000.0,030.1,023.3,025.2,0000.0,0002.22,0002.55,0002.07
2024-04-28 10:20:00,SystemResetWarning,0824.5,4.99,000.00,021.5,020.9,000.0,030.1,023.3,025.3,0000.0,0002.26,0002.58,0002.12
2024-04-28 10:21:00,SystemResetWarning,0824.5,5.01,000.00,021.5,020.9,000.0,030.1,023.3,025.3,0000.0,0002.32,0002.73,0002.16
2024-04-28 10:22:00,SystemResetWarning,0824.5,5.01,000.00,021.5,020.9,000.0,030.1,023.3,025.3,0000.0,0002.38,0002.88,0002.21
2024-04-28 10:23:00,SystemResetWarning,0824.5,5.01,000.00,021.5,020.9,000.0,030.1,023.3,025.3,0000.0,0002.44,0002.93,0002.26
2024-04-28 10:24:00,SystemResetWarning,0824.5,5.00,000.00,021.5,020.9,000.0,030.1,023.3,025.3,0000.0,0002.53,0003.08,0002.31
2024-04-28 10:25:00,SystemResetWarning,0824.5,4.99,000.00,021.5,020.9,000.0,030.1,023.3,025.4,0000.0,0002.58,0003.12,0002.37
2024-04-28 10:26:00,SystemResetWarning,0824.5,5.00,000.00,021.5,020.9,000.0,030.1,023.3,025.4,0000.0,0002.60,0003.15,0002.38
2024-04-28 10:27:00,SystemResetWarning,0824.5,5.00,000.00,021.5,020.9,000.0,030.1,023.3,025.4,0000.0,0002.62,0003.15,0002.40
2024-04-28 10:28:00,SystemResetWarning,0824.5,5.00,000.00,021.5,020.9,000.0,030.1,023.3,025.4,0000.0,0002.65,0003.19,0002.42
2024-04-28 10:29:00,SystemResetWarning,0824.5,5.01,000.00,021.5,020.9,000.0,030.1,023.3,025.5,0000.0,0002.69,0003.25,0002.44
2024-04-28 10:30:00,SystemResetWarning,0824.5,5.00,000.00,021.5,020.9,000.0,030.1,023.3,025.5,0000.0,0002.62,0003.18,0002.39
2024-04-28 10:31:00,SystemResetWarning,0824.5,5.00,000.00,021.5,020.9,000.0,030.1,023.3,025.5,0000.0,0002.52,0003.08,0002.30
2024-04-28 10:32:00,SystemResetWarning,0824.5,5.00,000.00,021.5,020.8,000.0,030.1,023.3,025.5,0000.0,0002.41,0002.91,0002.21
2024-04-28 10:33:00,SystemResetWarning,0824.5,5.01,000.00,021.5,020.8,000.0,030.1,023.3,025.5,0000.0,0002.32,0002.91,0002.11
2024-04-28 10:34:00,SystemResetWarning,0824.5,5.00,000.00,021.5,020.9,000.0,030.1,023.3,025.5,0000.0,0002.21,0002.80,0002.02
2024-04-28 10:35:00,SystemResetWarning,0824.5,5.00,000.00,021.5,020.9,000.0,030.1,023.3,025.5,0000.0,0002.07,0002.52,0001.91
2024-04-28 10:36:00,SystemResetWarning,0824.6,5.00,000.00,021.5,020.9,000.0,030.1,023.3,025.5,0000.0,0001.91,0002.32,0001.78
2024-04-28 10:37:00,SystemResetWarning,0824.5,5.01,000.00,021.5,020.9,000.0,030.0,023.3,026.0,0000.0,0001.81,0002.21,0001.69
2024-04-28 10:38:00,SystemResetWarning,0824.5,5.00,000.00,021.5,020.9,000.0,030.0,023.3,026.0,0000.0,0001.70,0002.10,0001.58
2024-04-28 10:39:00,SystemResetWarning,0824.5,5.00,000.00,021.5,020.9,000.0,030.0,023.3,025.6,0000.0,0001.58,0001.98,0001.48
2024-04-28 10:40:00,SystemResetWarning,0824.5,5.00,000.00,021.5,020.9,000.0,030.0,023.3,025.5,0000.0,0001.43,0001.78,0001.35
2024-04-28 10:41:00,SystemResetWarning,0824.5,4.99,000.00,021.5,020.8,000.0,030.0,023.3,025.5,0000.0,0001.36,0001.71,0001.29
2024-04-28 10:42:00,SystemResetWarning,0824.5,5.00,000.00,021.5,020.8,000.0,030.0,023.3,025.5,0000.0,0001.36,0001.76,0001.27
2024-04-28 10:43:00,SystemResetWarning,0824.5,5.00,000.00,021.5,020.8,000.0,030.0,023.3,025.5,0000.0,0001.38,0001.84,0001.26
2024-04-28 10:44:00,SystemResetWarning,0824.5,5.00,000.00,021.5,020.8,000.0,030.0,023.3,025.5,0000.0,0001.36,0001.66,0001.25
2024-04-28 10:45:00,SystemResetWarning,0824.6,5.00,000.00,021.5,020.8,000.0,030.0,023.3,025.5,0000.0,0001.40,0001.62,0001.28
2024-04-28 10:46:00,SystemResetWarning,0824.5,5.00,000.00,021.5,020.8,000.0,030.0,023.3,025.4,0000.0,0001.46,0001.68,0001.33
2024-04-28 10:47:00,SystemResetWarning,0824.5,5.00,000.00,021.5,020.8,000.0,030.0,023.3,025.5,0000.0,0001.54,0001.75,0001.39
2024-04-28 10:48:00,SystemResetWarning,0824.5,5.00,000.00,021.5,020.8,000.0,030.0,023.3,025.4,0000.0,0001.61,0001.83,0001.45
2024-04-28 10:49:00,SystemResetWarning,0824.5,5.00,000.00,021.5,020.8,000.0,030.0,023.3,025.4,0000.0,0001.67,0001.87,0001.51
2024-04-28 10:50:00,SystemResetWarning,0824.4,5.01,000.00,021.5,020.8,000.0,030.0,023.3,025.4,0000.0,0001.74,0001.95,0001.58
2024-04-28 10:51:00,SystemResetWarning,0824.4,5.01,000.00,021.5,020.8,000.0,030.0,023.3,025.4,0000.0,0001.81,0002.01,0001.65
2024-04-28 10:52:00,SystemResetWarning,0824.4,4.99,000.00,021.5,020.8,000.0,030.0,023.3,025.4,0000.0,0001.85,0002.05,0001.69
2024-04-28 10:53:00,SystemResetWarning,0824.4,5.00,000.00,021.5,020.8,000.0,030.0,023.3,025.4,0000.0,0001.89,0002.06,0001.74
2024-04-28 10:54:00,SystemResetWarning,0824.3,5.00,000.00,021.5,020.8,000.0,030.0,023.3,025.4,0000.0,0001.91,0002.01,0001.78
2024-04-28 10:55:00,SystemResetWarning,0824.4,4.99,000.00,021.5,020.8,000.0,030.0,023.3,025.4,0000.0,0001.95,0002.03,0001.83
2024-04-28 10:56:00,SystemResetWarning,0824.4,5.00,000.00,021.5,020.8,000.0,030.0,023.3,025.4,0000.0,0001.96,0002.03,0001.86
2024-04-28 10:57:00,SystemResetWarning,0824.4,4.99,000.00,021.5,020.8,000.0,030.0,023.3,025.4,0000.0,0001.92,0001.99,0001.84
2024-04-28 10:58:00,SystemResetWarning,0824.4,5.00,000.00,021.5,020.8,000.0,030.0,023.3,025.3,0000.0,0001.90,0001.95,0001.83
2024-04-28 10:59:00,SystemResetWarning,0824.4,5.01,000.00,021.5,020.8,000.0,030.0,023.3,025.3,0000.0,0001.90,0002.00,0001.83
